Location: Katherine
(14.4670°S, 132.2670°E)
Time: 22:00:12
(UTC+09:30)

ISS - Pass Details

Date: 22 June 2018
Orbit: 402 x 408 km, 51.6° (Epoch: 22 October)

Event Time Altitude Azimuth Distance (km) Brightness Sun altitude
Exits shadow 05:16:55 33° 82° (E) 713 -2.1 -25.1°
Drops below altitude 10° 05:19:08 10° 54° (NE) 1,480 0.0 -24.6°
Sets 05:21:16 0° 48° (NE) 2,339 1.1 -24.1°
